Preview of NWS' New Version of Forecast
This preview is not operational and should not be used for support decisions.

Regional Weather Roundup (RWR)

Issued by National Weather Service (NWS)

                            
000
ASUS42 KTBW 232315
RWRFL 
FLORIDA REGIONAL WEATHER ROUNDUP
NATIONAL WEATHER SERVICE TAMPA BAY RUSKIN FL
700 PM EDT SUN JUN 23 2019

NOTE: "FAIR" INDICATES FEW OR NO CLOUDS BELOW 12,000 FEET WITH NO
SIGNIFICANT WEATHER AND/OR OBSTRUCTIONS TO VISIBILITY.

FLZ001>010-012>015-112-114-115-240000-
PANHANDLE FLORIDA
  
CITY           SKY/WX    TMP DP  RH WIND       PRES   REMARKS
PENSACOLA      FAIR      87  78  74 SW13      29.99F HX 100           
PENSACOLA NAS  PTSUNNY   87  79  76 S13       29.99F HX 101           
CRESTVIEW      FAIR      90  71  53 S13       30.01F HX  96           
DUKE FIELD     FAIR      89  73  58 S14       30.00F HX  96           
VALPARAISO     FAIR      87  75  67 S9        30.00F HX  96           
MARY ESTHER    MOSUNNY   87  76  70 SW9       30.00F HX  97           
TRI COUNTY     FAIR      89  70  53 SW5       30.00F                  
PANAMA CITY    FAIR      88  73  61 S10       30.01F HX  95           
TYNDALL AFB    FAIR      87  76  69 SW7       30.01F HX  97           
APALACHICOLA   FAIR      87  74  64 SW10      30.03S HX  95           

STATION/POSITION SKY/WX   TEMP    WIND        PRES    WAVE   SWELL
                          AIR SEA DIR/SP/G            HT/PER HT/PER
                          (F)     (DEG/KT/KT) (MB)    (FT/S) (FT/S)
PANAMA CITY BEAC           85 87  230/  9/ 10 1017.2
TOWER C          NOT AVBL

$$
FLZ011-016>038-118-127-128-134-139-239-240000-
NORTH FLORIDA
  
CITY           SKY/WX    TMP DP  RH WIND       PRES   REMARKS
MARIANNA       FAIR      93  68  43 W10       29.98F HX  97           
TALLAHASSEE    PTSUNNY   90  78  68 S9        29.99F THUNDER HX 104   
PERRY          FAIR      89  77  68 W10       30.02S HX 101           
LIVE OAK       SUNNY     93  72  49 W5        30.00F HX 100           
CROSS CITY     FAIR      90  73  58 W8        30.02F HX  98           
LAKE CITY      FAIR      91  70  49 W9        30.01F HX  97           
GAINESVILLE    FAIR      91  73  55 W9        30.03S HX  99           
PALATKA        FAIR      91  72  52 W6        30.00S HX  98           
MAYPORT NAS    FAIR      86  76  71 SE10      29.98F HX  96           
JACKSONVILLE   PTSUNNY   92  72  51 NE12      29.98S HX  99           
JAX NAS        FAIR      96  68  39 W9        29.98F HX 101           
JAX CECIL      MOSUNNY   97  70  41 VRB5      29.98F HX 103           
FERNANDINA BEA FAIR      85  74  70 E5        29.99F                  
ST AUGUSTINE   FAIR      88  74  63 S13       30.00F HX  96           

STATION/POSITION SKY/WX   TEMP    WIND        PRES    WAVE   SWELL
                          AIR SEA DIR/SP/G            HT/PER HT/PER
                          (F)     (DEG/KT/KT) (MB)    (FT/S) (FT/S)
SHELL POINT      NOT AVBL
KEATON BEACH               85     230/ 11/ 13 1016.8F
CEDAR KEY                  86     280/  8/  9 1017.0F
FERNANDINA                 89 85  100/  2/  4 1016.5F
30.7N   81.3W                 84                N/A     1/10
MAYPORT                    85 84  140/  7/ 10 1015.8F
ST AUGUSTINE               83 83  180/ 13/ 14 1015.6F

$$
FLZ040-043>046-052-053-057-058-063-144-240000-
INTERIOR CENTRAL FLORIDA
  
CITY           SKY/WX    TMP DP  RH WIND       PRES   REMARKS
OCALA          FAIR      91  72  53 W8        30.02S HX  98           
LEESBURG       FAIR      91  71  51 W8        30.02S HX  97           
SANFORD        FAIR      83  71  67 SE7       30.01F                  
ORLANDO EXEC   FAIR      86  70  58 SE6       30.01F                  
ORLANDO INTL   PTSUNNY   84  71  65 CALM      30.01F                  
KISSIMMEE      FAIR      87  73  62 SE5       30.03F                  
WINTER HAVEN   FAIR      94  67  41 NW9       30.03F HX  97           
LAKELAND       MOSUNNY   91  66  43 NW9       30.03F                  
BARTOW         FAIR      93  68  43 NW7       30.01S HX  97           
SEBRING        FAIR      94  68  42 N6        30.01F HX  98           
OKEECHOBEE     FAIR      91  70  49 N5        30.01S HX  97           

$$
FLZ041-047-054-059-064-141-147-240000-
EAST CENTRAL FLORIDA
  
CITY           SKY/WX    TMP DP  RH WIND       PRES   REMARKS
DAYTONA BEACH  FAIR      80  71  74 S6        30.01F                  
DELAND         FAIR      86  68  54 E9        30.01S                  
NEW SMYRNA BEA MOSUNNY   79  72  78 SW6       30.03F                  
JFK SPACE CTR  FAIR      81  64  56 CALM      30.01F                  
TITUSVILLE     PTSUNNY   81  73  78 CALM      30.03F                  
CAPE CANAVERAL FAIR      80  34  19 CALM      30.01S                  
PATRICK AFB    FAIR      81  71  72 CALM      30.01S                  
MELBOURNE      FAIR      85  69  58 E8        30.02S                  
VERO BEACH     FAIR      86  75  69 SE5       30.01F HX  95           
FT PIERCE      FAIR      86  74  67 E8        30.01F                  
STUART         MOSUNNY   88  73  62 SE6       30.03F HX  96           

STATION/POSITION SKY/WX   TEMP    WIND        PRES    WAVE   SWELL
                          AIR SEA DIR/SP/G            HT/PER HT/PER
                          (F)     (DEG/KT/KT) (MB)    (FT/S) (FT/S)
TRIDENT PIER               78 76     CALM     1017.5F
28.4N   80.5W                 75                N/A     1/11
27.5N   80.2W                 83                N/A     1/10

$$
FLZ050-056-061-142-242-148-248-149-249-151-251-155-255-
160-260-240000-
WEST CENTRAL FLORIDA
  
CITY           SKY/WX    TMP DP  RH WIND       PRES   REMARKS
CRYSTAL RIVER  FAIR     N/A N/A N/A W9        30.03F                  
INVERNESS      FAIR      90  73  58 CALM      30.03S HX  98           
BROOKSVILLE    FAIR      88  69  53 W9        30.04F                  
CLEARWATER AIR FAIR      84  72  65 W5        30.04S                  
ST PETE CLEARW FAIR      87  73  62 W10       30.04S                  
TAMPA INTL     FAIR      89  72  56 W10       30.04S HX  96           
PLANT CITY       N/A    N/A N/A N/A MISG        N/A                   
MACDILL AFB    FAIR      89  74  60 N8        30.04R HX  97           
PETER O KNIGHT PTSUNNY   90  73  58 W6        30.04S HX  98           
ST PETERSBURG  FAIR      89  75  63 W7        30.02S HX  99           
SARASOTA       FAIR      89  75  63 W9        30.02F HX  99           
VENICE         FAIR      90  77  66 W10       30.04F HX 102           

STATION/POSITION SKY/WX   TEMP    WIND        PRES    WAVE   SWELL
                          AIR SEA DIR/SP/G            HT/PER HT/PER
                          (F)     (DEG/KT/KT) (MB)    (FT/S) (FT/S)
27.3N   84.2W                 87                N/A     1/ 6
CLEARWATER BEACH           85 89  290/  6/ 10 1017.7
MIDDLE TAMPA BAY           86     300/  9/ 11 1017.5F
VENICE                     86 86  300/  8/  9 1017.2F

$$
FLZ066-069-070-075>078-162-262-165-265-240000-
SOUTHWEST FLORIDA AND KEYS
  
CITY           SKY/WX    TMP DP  RH WIND       PRES   REMARKS
PUNTA GORDA    FAIR      90  72  55 W8        30.03F HX  97           
FT MYERS       FAIR      91  66  43 W10       30.01S                  
SOUTHWEST INTL FAIR      92  71  50 W9        30.02S HX  98           
NAPLES         FAIR      90  77  65 W7        30.02F HX 103           
IMMOKALEE      FAIR      91  73  55 SW7       30.00R HX 100           
MARATHON       FAIR      89  76  65 SE6       30.02S HX 100           
KEY WEST NAS   FAIR      89  76  65 SE6       30.03S HX 100           
KEY WEST INTL  FAIR      87  76  69 SE5       30.03S HX  97           

STATION/POSITION SKY/WX   TEMP    WIND        PRES    WAVE   SWELL
                          AIR SEA DIR/SP/G            HT/PER HT/PER
                          (F)     (DEG/KT/KT) (MB)    (FT/S) (FT/S)
NAPLES                     93 90              1016.9F
DRY TORTUGAS     NOT AVBL

$$
FLZ067-068-071>074-168-172>174-240000-
SOUTHEAST FLORIDA 
  
CITY           SKY/WX    TMP DP  RH WIND       PRES   REMARKS
W PALM BEACH   FAIR      89  75  63 SE9       30.03S HX  99           
BOCA RATON     SUNNY     88  75  66 SE6       30.03S HX  97           
FT LAUDER-EXEC FAIR      87  73  62 E7        30.02F                  
FT LAUDERDALE  FAIR      87  74  64 SE10      30.02S HX  95           
POMPANO BEACH  FAIR      87  74  64 SE5       30.02F HX  95           
PEMBROKE PINES FAIR      89  73  59 E8        30.04S HX  97           
OPA LOCKA      FAIR      88  75  65 SE9       30.04R HX  97           
MIAMI          PTSUNNY   88  74  63 SE10      30.04R HX  96           
WEST KENDALL   FAIR      88  76  67 SE10      30.03R HX  99           
HOMESTEAD      FAIR      86  78  76 SE6       30.02R HX  98           

STATION/POSITION SKY/WX   TEMP    WIND        PRES    WAVE   SWELL
                          AIR SEA DIR/SP/G            HT/PER HT/PER
                          (F)     (DEG/KT/KT) (MB)    (FT/S) (FT/S)
VIRGINIA KEY               87 91  100/  8/ 11 1016.3
LAKE WORTH                 85 86  130/  5/  7 1018.1F
FOWEY ROCKS                85 85  120/ 11/ 12 1017.2R
SETTLEMENT POINT           86      CALM  /  1 1017.0F

$$